DWI6172 MDPC-SCEL

Flight info

Callsign DWI6172
Flight time 5h 55m
Altitude 34000
Route VESKA3T VESKA DCT AMBAS DCT TIPGA DCT UGOSA DCT ELB DCT XOGEN DCT GIR UL305 NIRBU/N0466F360 UL305 JCL/N0461F370 UL302 TOY UV208 SIMOK SIMOK7B
Aircraft B38M/M-SDE1FGHILORVWXY/HB1

Departure

Time 2026-05-05 22:11
Airport Punta Cana International Airport (MDPC)

Arrival

Time 2026-05-06 04:07
Airport Comodoro Arturo Merino Benítez International Airport (SCEL)
Time Latitude Longitude Altitude Speed Heading
2026-05-05 21:52 18.56254 -68.37085 52 ft 0 kts 265°
2026-05-05 21:58 18.56256 -68.37064 49 ft 4 kts 264°
2026-05-05 21:58 18.56261 -68.37037 51 ft 4 kts 248°
2026-05-05 21:58 18.56273 -68.37017 52 ft 4 kts 230°
2026-05-05 21:58 18.56292 -68.36997 52 ft 4 kts 218°
2026-05-05 21:59 18.56310 -68.36979 52 ft 4 kts 252°
2026-05-05 21:59 18.56311 -68.36972 47 ft 2 kts 274°
2026-05-05 22:02 18.56311 -68.36974 52 ft 1 kts 275°
2026-05-05 22:03 18.56317 -68.36984 46 ft 2 kts 312°
2026-05-05 22:03 18.56337 -68.36995 48 ft 5 kts 343°
2026-05-05 22:03 18.56383 -68.37005 49 ft 9 kts 351°
2026-05-05 22:03 18.56449 -68.37013 48 ft 9 kts 354°
2026-05-05 22:04 18.56488 -68.37030 51 ft 5 kts 308°
2026-05-05 22:04 18.56495 -68.37055 53 ft 3 kts 275°
2026-05-05 22:04 18.56497 -68.37086 53 ft 6 kts 272°
2026-05-05 22:04 18.56491 -68.37143 53 ft 10 kts 263°
2026-05-05 22:05 18.56482 -68.37234 53 ft 12 kts 265°
2026-05-05 22:05 18.56475 -68.37321 47 ft 11 kts 265°
2026-05-05 22:05 18.56469 -68.37392 53 ft 8 kts 265°
2026-05-05 22:05 18.56464 -68.37445 53 ft 6 kts 265°
2026-05-05 22:06 18.56460 -68.37498 50 ft 9 kts 264°
2026-05-05 22:06 18.56456 -68.37545 51 ft 11 kts 265°
2026-05-05 22:06 18.56444 -68.37672 49 ft 15 kts 265°
2026-05-05 22:06 18.56449 -68.37749 49 ft 17 kts 295°
2026-05-05 22:07 18.56505 -68.37784 49 ft 0 kts 352°
2026-05-05 22:07 18.56511 -68.37785 53 ft 3 kts 353°
2026-05-05 22:08 18.56555 -68.37789 48 ft 10 kts 356°
2026-05-05 22:08 18.56664 -68.37804 53 ft 21 kts 336°
2026-05-05 22:08 18.56713 -68.37881 53 ft 21 kts 294°
2026-05-05 22:08 18.56791 -68.38063 52 ft 8 kts 294°
2026-05-05 22:09 18.56805 -68.38098 52 ft 8 kts 294°
2026-05-05 22:09 18.56831 -68.38159 50 ft 9 kts 294°
2026-05-05 22:09 18.56861 -68.38223 51 ft 10 kts 306°
2026-05-05 22:09 18.56910 -68.38262 53 ft 7 kts 350°
2026-05-05 22:10 18.56956 -68.38272 53 ft 7 kts 348°
2026-05-05 22:10 18.56996 -68.38281 54 ft 6 kts 351°
2026-05-05 22:10 18.57035 -68.38263 52 ft 7 kts 54°
2026-05-05 22:10 18.57059 -68.38192 54 ft 26 kts 73°
2026-05-05 22:11 18.57178 -68.37758 52 ft 97 kts 73°
2026-05-05 22:11 18.57429 -68.36856 49 ft 158 kts 73°
2026-05-05 22:11 18.57751 -68.35587 243 ft 191 kts 80°
2026-05-05 22:11 18.58076 -68.34217 944 ft 198 kts 80°
2026-05-05 22:12 18.58430 -68.32754 1530 ft 219 kts 79°
2026-05-05 22:12 18.58719 -68.31090 1952 ft 242 kts 94°
2026-05-05 22:12 18.58257 -68.29410 2721 ft 238 kts 125°
2026-05-05 22:12 18.57124 -68.28162 3703 ft 234 kts 141°
2026-05-05 22:13 18.55783 -68.27281 4730 ft 230 kts 156°
2026-05-05 22:13 18.54179 -68.26892 5334 ft 246 kts 175°
2026-05-05 22:13 18.52410 -68.27015 5539 ft 260 kts 191°
2026-05-05 22:13 18.50718 -68.27748 6185 ft 270 kts 210°
2026-05-05 22:14 18.49276 -68.29086 6813 ft 282 kts 225°
2026-05-05 22:14 18.47873 -68.30520 7621 ft 281 kts 220°
2026-05-05 22:14 18.46424 -68.31931 8365 ft 284 kts 220°
2026-05-05 22:14 18.44976 -68.33358 9140 ft 287 kts 221°
2026-05-05 22:15 18.43519 -68.34807 9896 ft 289 kts 222°
2026-05-05 22:15 18.42070 -68.36255 10504 ft 295 kts 222°
2026-05-05 22:15 18.40543 -68.37784 10842 ft 311 kts 222°
2026-05-05 22:15 18.38928 -68.39400 11106 ft 328 kts 223°
2026-05-05 22:16 18.37235 -68.41094 11390 ft 343 kts 223°
2026-05-05 22:16 18.35474 -68.42856 11835 ft 350 kts 223°
2026-05-05 22:16 18.33715 -68.44624 12514 ft 351 kts 223°
2026-05-05 22:16 18.31934 -68.46412 13008 ft 357 kts 223°
2026-05-05 22:17 18.30133 -68.48219 13593 ft 359 kts 224°
2026-05-05 22:17 18.28313 -68.50045 14098 ft 363 kts 224°
2026-05-05 22:17 18.26479 -68.51884 14594 ft 365 kts 224°
2026-05-05 22:17 18.24642 -68.53726 15093 ft 367 kts 224°
2026-05-05 22:18 18.22784 -68.55588 15580 ft 369 kts 225°
2026-05-05 22:18 18.20921 -68.57456 16066 ft 371 kts 225°
2026-05-05 22:18 18.19041 -68.59338 16519 ft 374 kts 225°
2026-05-05 22:18 18.17145 -68.61236 16967 ft 377 kts 225°
2026-05-05 22:19 18.15244 -68.63140 17425 ft 379 kts 225°
2026-05-05 22:19 18.13320 -68.65065 17867 ft 381 kts 225°
2026-05-05 22:19 18.11398 -68.66989 18293 ft 384 kts 225°
2026-05-05 22:19 18.09452 -68.68935 18663 ft 386 kts 225°
2026-05-05 22:20 18.07506 -68.70880 19031 ft 388 kts 225°
2026-05-05 22:20 18.05543 -68.72843 19391 ft 391 kts 225°
2026-05-05 22:20 18.03593 -68.74792 19733 ft 393 kts 225°
2026-05-05 22:20 18.01600 -68.76782 20092 ft 395 kts 225°
2026-05-05 22:21 17.99603 -68.78777 20441 ft 397 kts 225°
2026-05-05 22:21 17.97586 -68.80790 20779 ft 400 kts 225°
2026-05-05 22:21 17.95569 -68.82803 21131 ft 402 kts 225°
2026-05-05 22:21 17.93535 -68.84833 21470 ft 404 kts 225°
2026-05-05 22:22 17.91487 -68.86875 21809 ft 407 kts 225°
2026-05-05 22:22 17.89426 -68.88930 22148 ft 409 kts 225°
2026-05-05 22:22 17.87384 -68.90965 22489 ft 411 kts 225°
2026-05-05 22:22 17.85305 -68.93036 22826 ft 414 kts 225°
2026-05-05 22:23 17.83207 -68.95126 23161 ft 416 kts 225°
2026-05-05 22:23 17.81101 -68.97223 23488 ft 418 kts 225°
2026-05-05 22:23 17.78976 -68.99338 23789 ft 421 kts 225°
2026-05-05 22:23 17.76851 -69.01452 24067 ft 422 kts 225°
2026-05-05 22:24 17.74712 -69.03579 24375 ft 423 kts 225°
2026-05-05 22:24 17.72570 -69.05710 24680 ft 425 kts 225°
2026-05-05 22:24 17.70422 -69.07845 24956 ft 427 kts 225°
2026-05-05 22:24 17.68260 -69.09993 25257 ft 428 kts 225°
2026-05-05 22:25 17.66087 -69.12152 25544 ft 430 kts 225°
2026-05-05 22:25 17.63941 -69.14282 25813 ft 431 kts 225°
2026-05-05 22:25 17.61756 -69.16451 26094 ft 433 kts 225°
2026-05-05 22:25 17.59564 -69.18626 26364 ft 435 kts 225°
2026-05-05 22:26 17.57358 -69.20814 26631 ft 436 kts 225°
2026-05-05 22:26 17.55153 -69.23000 26903 ft 438 kts 225°
2026-05-05 22:26 17.52934 -69.25200 27163 ft 439 kts 225°
2026-05-05 22:26 17.50701 -69.27413 27424 ft 441 kts 225°
2026-05-05 22:27 17.48468 -69.29624 27686 ft 442 kts 225°
2026-05-05 22:27 17.46235 -69.31836 27935 ft 444 kts 225°
2026-05-05 22:27 17.43982 -69.34065 28177 ft 446 kts 225°
2026-05-05 22:27 17.41752 -69.36272 28422 ft 447 kts 225°
2026-05-05 22:28 17.39459 -69.38540 28664 ft 449 kts 225°
2026-05-05 22:28 17.37214 -69.40760 28885 ft 450 kts 225°
2026-05-05 22:28 17.34933 -69.43014 29124 ft 452 kts 225°
2026-05-05 22:28 17.32642 -69.45278 29344 ft 453 kts 225°
2026-05-05 22:29 17.30351 -69.47541 29557 ft 455 kts 225°
2026-05-05 22:29 17.28045 -69.49817 29771 ft 456 kts 225°
2026-05-05 22:29 17.25726 -69.52106 29984 ft 458 kts 225°
2026-05-05 22:29 17.23549 -69.54254 30169 ft 459 kts 225°
2026-05-05 22:30 17.21136 -69.56634 30348 ft 460 kts 225°
2026-05-05 22:30 17.18811 -69.58927 30528 ft 461 kts 225°
2026-05-05 22:30 17.16463 -69.61241 30698 ft 462 kts 225°
2026-05-05 22:30 17.14117 -69.63552 30883 ft 464 kts 225°
2026-05-05 22:31 17.11765 -69.65869 31042 ft 465 kts 225°
2026-05-05 22:31 17.09408 -69.68189 31217 ft 466 kts 225°
2026-05-05 22:31 17.07049 -69.70511 31410 ft 466 kts 225°
2026-05-05 22:31 17.04691 -69.72831 31643 ft 465 kts 225°
2026-05-05 22:32 17.02366 -69.75118 31883 ft 465 kts 225°
2026-05-05 22:32 16.99983 -69.77460 32128 ft 464 kts 225°
2026-05-05 22:32 16.97665 -69.79738 32371 ft 463 kts 225°
2026-05-05 22:32 16.95311 -69.82051 32619 ft 462 kts 225°
2026-05-05 22:33 16.92975 -69.84346 32856 ft 461 kts 225°
2026-05-05 22:33 16.90635 -69.86643 33093 ft 460 kts 225°
2026-05-05 22:33 16.88301 -69.88934 33326 ft 460 kts 225°
2026-05-05 22:33 16.85973 -69.91218 33572 ft 459 kts 225°
2026-05-05 22:34 16.83649 -69.93497 33817 ft 458 kts 225°
2026-05-05 22:34 16.81331 -69.95770 33995 ft 457 kts 225°
2026-05-05 22:34 16.79016 -69.98038 34013 ft 456 kts 225°
2026-05-05 22:35 16.74395 -70.02564 34019 ft 455 kts 225°
2026-05-05 22:35 16.69773 -70.07088 34023 ft 455 kts 225°
2026-05-05 22:36 16.65148 -70.11611 34023 ft 456 kts 225°
2026-05-05 22:36 16.60525 -70.16130 34020 ft 456 kts 225°
2026-05-05 22:37 16.55896 -70.20650 34017 ft 456 kts 225°
2026-05-05 22:37 16.51260 -70.25175 34017 ft 456 kts 225°
2026-05-05 22:38 16.46656 -70.29666 34018 ft 456 kts 225°
2026-05-05 22:38 16.42006 -70.34198 34012 ft 457 kts 225°
2026-05-05 22:39 16.37366 -70.38717 34009 ft 457 kts 225°
2026-05-05 22:39 16.32726 -70.43233 34016 ft 457 kts 225°
2026-05-05 22:40 16.28075 -70.47757 34009 ft 457 kts 225°
2026-05-05 22:40 16.23422 -70.52281 34010 ft 457 kts 225°
2026-05-05 22:41 16.18772 -70.56797 34011 ft 458 kts 225°
2026-05-05 22:41 16.14119 -70.61314 34010 ft 458 kts 225°
2026-05-05 22:42 16.09460 -70.65833 34009 ft 458 kts 225°
2026-05-05 22:42 16.04805 -70.70346 34005 ft 458 kts 225°
2026-05-05 22:43 15.99926 -70.74618 33994 ft 460 kts 210°
2026-05-05 22:43 15.93933 -70.77056 33998 ft 465 kts 202°
2026-05-05 22:44 15.87863 -70.79248 34001 ft 465 kts 201°
2026-05-05 22:44 15.81727 -70.81407 34001 ft 466 kts 201°
2026-05-05 22:45 15.75582 -70.83559 33996 ft 466 kts 201°
2026-05-05 22:45 15.69422 -70.85716 33999 ft 466 kts 201°
2026-05-05 22:46 15.63273 -70.87866 33995 ft 466 kts 201°
2026-05-05 22:46 15.57117 -70.90017 33995 ft 467 kts 201°
2026-05-05 22:47 15.51003 -70.92154 33993 ft 467 kts 201°
2026-05-05 22:47 15.44847 -70.94303 33993 ft 467 kts 201°
2026-05-05 22:48 15.38675 -70.96456 33994 ft 468 kts 201°
2026-05-05 22:48 15.32497 -70.98610 33992 ft 468 kts 201°
2026-05-05 22:49 15.26314 -71.00765 33992 ft 468 kts 201°
2026-05-05 22:49 15.21178 -71.02553 33988 ft 469 kts 201°
2026-05-05 22:50 15.13941 -71.05071 33989 ft 469 kts 201°
2026-05-05 22:50 15.07748 -71.07225 33984 ft 469 kts 200°
2026-05-05 22:51 15.01592 -71.09365 33984 ft 470 kts 201°
2026-05-05 22:51 14.95395 -71.11518 33984 ft 470 kts 201°
2026-05-05 22:52 14.89194 -71.13670 33981 ft 470 kts 201°
2026-05-05 22:52 14.82982 -71.15826 33981 ft 471 kts 201°
2026-05-05 22:53 14.76767 -71.17981 33975 ft 471 kts 201°
2026-05-05 22:53 14.70545 -71.20137 33976 ft 471 kts 201°
2026-05-05 22:54 14.64326 -71.22291 33973 ft 472 kts 200°
2026-05-05 22:54 14.59146 -71.24083 33975 ft 472 kts 201°
2026-05-05 22:55 14.52921 -71.26237 33970 ft 472 kts 201°
2026-05-05 22:55 14.46684 -71.28393 33971 ft 473 kts 200°
2026-05-05 22:56 14.40447 -71.30548 33969 ft 473 kts 201°
2026-05-05 22:56 14.34205 -71.32704 33968 ft 473 kts 201°
2026-05-05 22:57 14.27962 -71.34858 33963 ft 473 kts 201°
2026-05-05 22:57 14.21718 -71.37012 33963 ft 474 kts 200°
2026-05-05 22:58 14.15462 -71.39168 33965 ft 474 kts 200°
2026-05-05 22:58 14.09209 -71.41323 33961 ft 474 kts 200°
2026-05-05 22:59 14.02953 -71.43476 33961 ft 474 kts 200°
2026-05-05 22:59 13.96697 -71.45629 33956 ft 474 kts 201°
2026-05-05 23:00 13.87338 -71.48848 33954 ft 474 kts 201°
2026-05-05 23:00 13.81085 -71.50997 33951 ft 474 kts 201°
2026-05-05 23:01 13.74828 -71.53145 33949 ft 474 kts 200°
2026-05-05 23:01 13.68573 -71.55292 33948 ft 474 kts 201°
2026-05-05 23:02 13.62324 -71.57436 33941 ft 473 kts 201°
2026-05-05 23:02 13.56076 -71.59578 33943 ft 473 kts 201°
2026-05-05 23:03 13.49832 -71.61717 33949 ft 472 kts 201°
2026-05-05 23:03 13.43593 -71.63854 33940 ft 472 kts 200°
2026-05-05 23:04 13.37404 -71.65973 33937 ft 472 kts 201°
2026-05-05 23:04 13.31183 -71.68101 33934 ft 471 kts 201°
2026-05-05 23:05 13.24958 -71.70229 33934 ft 471 kts 201°
2026-05-05 23:05 13.18733 -71.72357 33934 ft 471 kts 201°
2026-05-05 23:06 13.12524 -71.74477 33936 ft 470 kts 201°
2026-05-05 23:06 13.06361 -71.76582 33934 ft 470 kts 200°
2026-05-05 23:07 13.00164 -71.78695 33926 ft 469 kts 201°
2026-05-05 23:07 12.93967 -71.80810 33924 ft 469 kts 201°
2026-05-05 23:08 12.87742 -71.82931 33931 ft 468 kts 200°
2026-05-05 23:08 12.81579 -71.85090 33914 ft 466 kts 207°
2026-05-05 23:09 12.75867 -71.88106 33915 ft 464 kts 210°
2026-05-05 23:09 12.70143 -71.91152 33922 ft 464 kts 210°
2026-05-05 23:10 12.64412 -71.94209 33916 ft 464 kts 209°
2026-05-05 23:10 12.58687 -71.97261 33916 ft 464 kts 209°
2026-05-05 23:11 12.52954 -72.00317 33920 ft 464 kts 209°
2026-05-05 23:11 12.47265 -72.03346 33914 ft 464 kts 209°
2026-05-05 23:12 12.41536 -72.06397 33912 ft 464 kts 209°
2026-05-05 23:12 12.35811 -72.09443 33906 ft 464 kts 209°
2026-05-05 23:13 12.30087 -72.12487 33903 ft 464 kts 208°
2026-05-05 23:13 12.24349 -72.15538 33903 ft 465 kts 208°
2026-05-05 23:14 12.18708 -72.18535 33902 ft 465 kts 208°
2026-05-05 23:14 12.12969 -72.21583 33899 ft 465 kts 208°
2026-05-05 23:15 12.07231 -72.24629 33898 ft 465 kts 208°
2026-05-05 23:15 12.01518 -72.27660 33893 ft 465 kts 208°
2026-05-05 23:16 11.95758 -72.30714 33893 ft 466 kts 208°
2026-05-05 23:16 11.90141 -72.33691 33893 ft 466 kts 208°
2026-05-05 23:17 11.84390 -72.36738 33893 ft 466 kts 208°
2026-05-05 23:17 11.78623 -72.39792 33894 ft 467 kts 208°
2026-05-05 23:18 11.72857 -72.42844 33893 ft 467 kts 208°
2026-05-05 23:18 11.67146 -72.45996 33892 ft 466 kts 211°
2026-05-05 23:19 11.61531 -72.49335 33890 ft 467 kts 211°
2026-05-05 23:19 11.55902 -72.52650 33892 ft 467 kts 211°
2026-05-05 23:20 11.50265 -72.55967 33892 ft 467 kts 211°
2026-05-05 23:20 11.44669 -72.59257 33893 ft 467 kts 211°
2026-05-05 23:21 11.39040 -72.62566 33892 ft 467 kts 211°
2026-05-05 23:21 11.33408 -72.65874 33893 ft 468 kts 211°
2026-05-05 23:22 11.27769 -72.69185 33900 ft 468 kts 211°
2026-05-05 23:22 11.22155 -72.72481 33908 ft 468 kts 211°
2026-05-05 23:23 11.16503 -72.75796 33911 ft 468 kts 211°
2026-05-05 23:23 11.10854 -72.79110 33909 ft 468 kts 211°
2026-05-05 23:24 11.05207 -72.82419 33913 ft 468 kts 211°
2026-05-05 23:24 10.99594 -72.85708 33921 ft 468 kts 211°
2026-05-05 23:25 10.93942 -72.89018 33925 ft 468 kts 211°
2026-05-05 23:25 10.88295 -72.92323 33932 ft 468 kts 211°
2026-05-05 23:26 10.82649 -72.95627 33936 ft 468 kts 211°
2026-05-05 23:26 10.76975 -72.98945 33940 ft 471 kts 211°
2026-05-05 23:27 10.71284 -73.02272 33941 ft 471 kts 211°
2026-05-05 23:27 10.65588 -73.05601 33940 ft 472 kts 211°
2026-05-05 23:28 10.59900 -73.08923 33929 ft 472 kts 211°
2026-05-05 23:28 10.54240 -73.12228 33923 ft 472 kts 211°
2026-05-05 23:29 10.48532 -73.15558 33912 ft 472 kts 211°
2026-05-05 23:29 10.42831 -73.18884 33914 ft 473 kts 211°
2026-05-05 23:30 10.37121 -73.22213 33911 ft 473 kts 211°
2026-05-05 23:30 10.31411 -73.25541 33912 ft 473 kts 211°
2026-05-05 23:31 10.25739 -73.28846 33912 ft 473 kts 211°
2026-05-05 23:31 10.20027 -73.32172 33907 ft 473 kts 211°
2026-05-05 23:32 10.14314 -73.35498 33901 ft 473 kts 210°
2026-05-05 23:32 10.08583 -73.38832 33887 ft 474 kts 210°
2026-05-05 23:33 10.02864 -73.42159 33877 ft 474 kts 210°
2026-05-05 23:33 9.97142 -73.45485 33868 ft 474 kts 210°
2026-05-05 23:34 9.91454 -73.48790 33868 ft 474 kts 210°
2026-05-05 23:34 9.85725 -73.52119 33863 ft 475 kts 210°
2026-05-05 23:35 9.79986 -73.55453 33859 ft 475 kts 210°
2026-05-05 23:35 9.74235 -73.58777 33857 ft 475 kts 209°
2026-05-05 23:36 9.68394 -73.61943 33860 ft 476 kts 209°
2026-05-05 23:36 9.62560 -73.65124 33859 ft 476 kts 209°
2026-05-05 23:37 9.56719 -73.68311 33864 ft 476 kts 209°
2026-05-05 23:37 9.50879 -73.71494 33866 ft 477 kts 209°
2026-05-05 23:38 9.45031 -73.74682 33864 ft 477 kts 209°
2026-05-05 23:38 9.39218 -73.77849 33862 ft 477 kts 209°
2026-05-05 23:39 9.33371 -73.81033 33864 ft 477 kts 209°
2026-05-05 23:39 9.27525 -73.84215 33865 ft 478 kts 208°
2026-05-05 23:40 9.21660 -73.87407 33866 ft 477 kts 208°
2026-05-05 23:40 9.15816 -73.90586 33866 ft 477 kts 208°
2026-05-05 23:41 9.10950 -73.93232 33865 ft 477 kts 208°
2026-05-05 23:41 9.05098 -73.96399 33860 ft 477 kts 206°
2026-05-05 23:42 8.98972 -73.98950 33860 ft 477 kts 202°
2026-05-05 23:42 8.92862 -74.01547 33864 ft 477 kts 203°
2026-05-05 23:43 8.86748 -74.04165 33866 ft 477 kts 203°
2026-05-05 23:43 8.80637 -74.06783 33873 ft 477 kts 203°
2026-05-05 23:44 8.74526 -74.09400 33871 ft 477 kts 203°
2026-05-05 23:44 8.68413 -74.12018 33871 ft 477 kts 203°
2026-05-05 23:45 8.62293 -74.14637 33878 ft 477 kts 203°
2026-05-05 23:45 8.56219 -74.17236 33882 ft 477 kts 203°
2026-05-05 23:46 8.50097 -74.19855 33888 ft 478 kts 203°
2026-05-05 23:46 8.43981 -74.22469 33900 ft 478 kts 203°
2026-05-05 23:47 8.37849 -74.25090 33902 ft 478 kts 203°
2026-05-05 23:47 8.31717 -74.27710 33910 ft 478 kts 202°
2026-05-05 23:48 8.25580 -74.30331 33918 ft 479 kts 203°
2026-05-05 23:48 8.19445 -74.32950 33928 ft 478 kts 203°
2026-05-05 23:49 8.13309 -74.35569 33940 ft 479 kts 203°
2026-05-05 23:49 8.07162 -74.38192 33944 ft 479 kts 203°
2026-05-05 23:50 8.01069 -74.40791 33950 ft 478 kts 203°
2026-05-05 23:50 7.94951 -74.43400 33957 ft 478 kts 203°
2026-05-05 23:51 7.88823 -74.46012 33964 ft 477 kts 203°
2026-05-05 23:51 7.82720 -74.48613 33968 ft 477 kts 203°
2026-05-05 23:52 7.76340 -74.50254 33994 ft 474 kts 185°
2026-05-05 23:52 7.69766 -74.50995 33985 ft 476 kts 186°
2026-05-05 23:53 7.63179 -74.51682 33992 ft 475 kts 185°
2026-05-05 23:53 7.56594 -74.52355 33992 ft 475 kts 185°
2026-05-05 23:54 7.50015 -74.53026 33993 ft 475 kts 185°
2026-05-05 23:54 7.43478 -74.53694 33998 ft 475 kts 185°
2026-05-05 23:55 7.36905 -74.54364 34006 ft 475 kts 185°
2026-05-05 23:55 7.30325 -74.55034 34018 ft 475 kts 185°
2026-05-05 23:56 7.23743 -74.55705 34024 ft 475 kts 185°
2026-05-05 23:56 7.17164 -74.56376 34028 ft 474 kts 185°
2026-05-05 23:57 7.10600 -74.57044 34034 ft 473 kts 185°
2026-05-05 23:57 7.04079 -74.57708 34040 ft 473 kts 185°
2026-05-05 23:58 6.97546 -74.58373 34049 ft 472 kts 185°
2026-05-05 23:58 6.91002 -74.59039 34053 ft 472 kts 185°
2026-05-05 23:59 6.84471 -74.59704 34060 ft 472 kts 185°
2026-05-05 23:59 6.77934 -74.60368 34062 ft 472 kts 185°
2026-05-06 00:00 6.71386 -74.61034 34072 ft 473 kts 185°
2026-05-06 00:00 6.64839 -74.61700 34081 ft 474 kts 185°
2026-05-06 00:01 6.58269 -74.62368 34088 ft 474 kts 185°
2026-05-06 00:01 6.51687 -74.63036 34087 ft 475 kts 185°
2026-05-06 00:02 6.45147 -74.63700 34089 ft 475 kts 185°
2026-05-06 00:02 6.38583 -74.64367 34097 ft 475 kts 185°
2026-05-06 00:03 6.31998 -74.65036 34104 ft 475 kts 185°
2026-05-06 00:03 6.25425 -74.65703 34102 ft 474 kts 185°
2026-05-06 00:04 6.18853 -74.66370 34114 ft 474 kts 185°
2026-05-06 00:04 6.12287 -74.67036 34112 ft 474 kts 185°
2026-05-06 00:05 6.02431 -74.68035 34124 ft 474 kts 185°
2026-05-06 00:06 5.95872 -74.68700 34130 ft 474 kts 185°
2026-05-06 00:06 5.89314 -74.69365 34137 ft 473 kts 185°
2026-05-06 00:07 5.82795 -74.70026 34139 ft 473 kts 185°
2026-05-06 00:07 5.76245 -74.70689 34150 ft 473 kts 185°
2026-05-06 00:08 5.69710 -74.71351 34151 ft 473 kts 185°
2026-05-06 00:08 5.63127 -74.72018 34289 ft 474 kts 185°
2026-05-06 00:08 5.59848 -74.72350 34519 ft 473 kts 185°
2026-05-06 00:09 5.56570 -74.72682 34729 ft 473 kts 185°
2026-05-06 00:09 5.53289 -74.73014 34910 ft 473 kts 185°
2026-05-06 00:09 5.50023 -74.73344 35068 ft 472 kts 185°
2026-05-06 00:09 5.46750 -74.73676 35219 ft 472 kts 185°
2026-05-06 00:10 5.43520 -74.74002 35380 ft 472 kts 185°
2026-05-06 00:10 5.40256 -74.74333 35552 ft 471 kts 185°
2026-05-06 00:10 5.37000 -74.74662 35727 ft 470 kts 185°
2026-05-06 00:10 5.33752 -74.74991 35886 ft 469 kts 185°
2026-05-06 00:11 5.30499 -74.75320 35958 ft 468 kts 185°
2026-05-06 00:11 5.18880 -74.76498 35918 ft 466 kts 184°
2026-05-06 00:12 5.07801 -74.77650 35975 ft 467 kts 184°
2026-05-06 00:12 4.96313 -74.78771 36063 ft 467 kts 184°
2026-05-06 00:13 4.83368 -74.80071 36127 ft 467 kts 184°
2026-05-06 00:13 4.70464 -74.81393 36115 ft 465 kts 185°
2026-05-06 00:14 4.57647 -74.82690 36081 ft 464 kts 184°
2026-05-06 00:14 4.44791 -74.83976 36068 ft 464 kts 184°
2026-05-06 00:15 4.31942 -74.85267 36056 ft 463 kts 185°
2026-05-06 00:15 4.19582 -74.86528 36036 ft 464 kts 186°
2026-05-06 00:16 4.13222 -74.87699 36027 ft 464 kts 189°
2026-05-06 00:16 4.00729 -74.89879 36028 ft 464 kts 188°
2026-05-06 00:17 3.88000 -74.92096 36025 ft 464 kts 188°
2026-05-06 00:17 3.75279 -74.94280 36020 ft 463 kts 189°
2026-05-06 00:18 3.65292 -74.96046 36025 ft 463 kts 188°
2026-05-06 00:18 3.53124 -74.98125 36013 ft 463 kts 189°
2026-05-06 00:19 3.40388 -75.00317 36030 ft 464 kts 188°
2026-05-06 00:19 3.33579 -75.01511 36009 ft 464 kts 188°
2026-05-06 00:20 3.22222 -75.03471 36029 ft 464 kts 188°
2026-05-06 00:20 3.09502 -75.05685 36005 ft 464 kts 189°
2026-05-06 00:21 2.96762 -75.07849 35978 ft 464 kts 189°
2026-05-06 00:21 2.84107 -75.10071 35975 ft 464 kts 188°
2026-05-06 00:22 2.71371 -75.12251 36020 ft 464 kts 188°
2026-05-06 00:22 2.58646 -75.14472 36054 ft 464 kts 189°
2026-05-06 00:23 2.45895 -75.16652 36061 ft 464 kts 188°
2026-05-06 00:23 2.35104 -75.18516 36063 ft 465 kts 188°
2026-05-06 00:24 2.23595 -75.20535 36057 ft 465 kts 188°
2026-05-06 00:24 2.12987 -75.22388 36060 ft 465 kts 187°
2026-05-06 00:25 1.98130 -75.24904 36047 ft 466 kts 188°
2026-05-06 00:25 1.85346 -75.27090 36029 ft 466 kts 189°
2026-05-06 00:26 1.72568 -75.29350 35999 ft 467 kts 188°
2026-05-06 00:26 1.59760 -75.31522 35974 ft 467 kts 189°
2026-05-06 00:27 1.49085 -75.33372 35961 ft 467 kts 189°
2026-05-06 00:27 1.34187 -75.35983 35964 ft 468 kts 188°
2026-05-06 00:28 1.23432 -75.37817 35958 ft 468 kts 188°
2026-05-06 00:28 1.10596 -75.40029 35953 ft 469 kts 188°
2026-05-06 00:29 0.95631 -75.42644 35953 ft 469 kts 188°
2026-05-06 00:29 0.84952 -75.44514 35959 ft 469 kts 188°
2026-05-06 00:30 0.72065 -75.46720 35959 ft 469 kts 189°
2026-05-06 00:30 0.59197 -75.48898 35967 ft 469 kts 189°
2026-05-06 00:31 0.46328 -75.51151 35968 ft 468 kts 188°
2026-05-06 00:31 0.33512 -75.53375 35965 ft 468 kts 189°
2026-05-06 00:32 0.20676 -75.55583 35968 ft 467 kts 188°
2026-05-06 00:32 0.07863 -75.57791 35966 ft 467 kts 189°
2026-05-06 00:33 -0.04955 -75.59972 35964 ft 467 kts 188°
2026-05-06 00:33 -0.17695 -75.62134 35966 ft 467 kts 188°
2026-05-06 00:34 -0.30523 -75.64343 35966 ft 468 kts 189°
2026-05-06 00:34 -0.43400 -75.66530 35971 ft 468 kts 188°
2026-05-06 00:35 -0.56239 -75.68794 35958 ft 468 kts 188°
2026-05-06 00:35 -0.65851 -75.70392 35972 ft 468 kts 188°
2026-05-06 00:36 -0.78706 -75.72589 35977 ft 468 kts 189°
2026-05-06 00:36 -0.91558 -75.74799 35974 ft 468 kts 189°
2026-05-06 00:37 -1.04397 -75.77003 35972 ft 468 kts 189°
2026-05-06 00:37 -1.17268 -75.79171 35974 ft 469 kts 189°
2026-05-06 00:38 -1.30060 -75.81401 35969 ft 469 kts 188°
2026-05-06 00:38 -1.42929 -75.83573 35968 ft 469 kts 189°
2026-05-06 00:39 -1.55813 -75.85784 35969 ft 470 kts 189°
2026-05-06 00:39 -1.68717 -75.87980 35969 ft 470 kts 189°
2026-05-06 00:40 -1.81628 -75.90203 35969 ft 470 kts 189°
2026-05-06 00:40 -1.89054 -75.91466 35972 ft 470 kts 189°
2026-05-06 00:41 -1.95506 -75.92565 35966 ft 470 kts 189°
2026-05-06 00:41 -2.01975 -75.93431 35974 ft 468 kts 183°
2026-05-06 00:42 -2.13474 -75.94393 35960 ft 469 kts 184°
2026-05-06 00:42 -2.26489 -75.95555 35966 ft 469 kts 184°
2026-05-06 00:43 -2.36210 -75.96479 35959 ft 469 kts 185°
2026-05-06 00:43 -2.45841 -75.97333 35969 ft 468 kts 184°
2026-05-06 00:44 -2.58821 -75.98505 35969 ft 468 kts 184°
2026-05-06 00:44 -2.71801 -75.99661 35974 ft 467 kts 184°
2026-05-06 00:45 -2.84757 -76.00827 35965 ft 466 kts 184°
2026-05-06 00:45 -2.97663 -76.01996 35965 ft 466 kts 186°
2026-05-06 00:46 -3.10590 -76.03201 35967 ft 465 kts 184°
2026-05-06 00:46 -3.23402 -76.04330 35975 ft 465 kts 184°
2026-05-06 00:47 -3.36277 -76.05499 35972 ft 465 kts 184°
2026-05-06 00:47 -3.45962 -76.06374 35962 ft 466 kts 184°
2026-05-06 00:48 -3.58890 -76.07502 35960 ft 466 kts 184°
2026-05-06 00:48 -3.71813 -76.08674 35958 ft 467 kts 185°
2026-05-06 00:49 -3.84765 -76.09859 35969 ft 467 kts 184°
2026-05-06 00:49 -3.97643 -76.11036 35962 ft 468 kts 184°
2026-05-06 00:50 -4.10627 -76.12194 35952 ft 468 kts 184°
2026-05-06 00:50 -4.23614 -76.13358 35951 ft 469 kts 185°
2026-05-06 00:51 -4.36613 -76.14506 35950 ft 469 kts 184°
2026-05-06 00:51 -4.49617 -76.15657 35944 ft 469 kts 184°
2026-05-06 00:52 -4.62633 -76.16846 35940 ft 469 kts 183°
2026-05-06 00:52 -4.72377 -76.17681 35930 ft 470 kts 184°
2026-05-06 00:53 -4.85323 -76.18846 35930 ft 470 kts 184°
2026-05-06 00:53 -4.98442 -76.20056 35924 ft 470 kts 184°
2026-05-06 00:54 -5.11400 -76.21220 35928 ft 471 kts 184°
2026-05-06 00:54 -5.24451 -76.22365 35926 ft 471 kts 184°
2026-05-06 00:55 -5.34113 -76.23258 35923 ft 471 kts 185°
2026-05-06 00:55 -5.40631 -76.24015 35915 ft 472 kts 185°
2026-05-06 00:56 -5.47164 -76.24765 35912 ft 472 kts 185°
2026-05-06 00:56 -5.53692 -76.25513 35920 ft 472 kts 185°
2026-05-06 00:57 -5.60232 -76.26263 35919 ft 472 kts 185°
2026-05-06 00:57 -5.66721 -76.27008 35915 ft 473 kts 185°
2026-05-06 00:58 -5.73259 -76.27757 35920 ft 473 kts 185°
2026-05-06 00:58 -5.79801 -76.28508 35916 ft 473 kts 185°
2026-05-06 00:59 -5.86338 -76.29258 35919 ft 473 kts 185°
2026-05-06 00:59 -5.92879 -76.30009 35922 ft 473 kts 185°
2026-05-06 01:00 -5.99433 -76.30762 35925 ft 473 kts 185°
2026-05-06 01:00 -6.05978 -76.31514 35928 ft 473 kts 185°
2026-05-06 01:01 -6.12520 -76.32265 35931 ft 473 kts 185°
2026-05-06 01:01 -6.19069 -76.33018 35936 ft 473 kts 185°
2026-05-06 01:02 -6.25574 -76.33766 35932 ft 474 kts 185°
2026-05-06 01:02 -6.32164 -76.34523 35929 ft 474 kts 185°
2026-05-06 01:03 -6.38682 -76.35273 35918 ft 474 kts 186°
2026-05-06 01:03 -6.45237 -76.36026 35908 ft 474 kts 186°
2026-05-06 01:04 -6.51795 -76.36746 35913 ft 474 kts 184°
2026-05-06 01:04 -6.58371 -76.37336 35912 ft 475 kts 184°
2026-05-06 01:05 -6.64963 -76.37944 35916 ft 475 kts 184°
2026-05-06 01:05 -6.71540 -76.38551 35917 ft 475 kts 184°
2026-05-06 01:06 -6.78125 -76.39159 35928 ft 475 kts 184°
2026-05-06 01:06 -6.84708 -76.39767 35931 ft 475 kts 184°
2026-05-06 01:07 -6.91304 -76.40377 35942 ft 475 kts 185°
2026-05-06 01:07 -6.97895 -76.40986 35942 ft 476 kts 185°
2026-05-06 01:08 -7.03380 -76.41493 35942 ft 476 kts 185°
2026-05-06 01:08 -7.11083 -76.42206 35950 ft 476 kts 185°
2026-05-06 01:09 -7.17684 -76.42816 35945 ft 476 kts 185°
2026-05-06 01:09 -7.24260 -76.43425 35950 ft 476 kts 185°
2026-05-06 01:10 -7.30830 -76.44033 35944 ft 476 kts 185°
2026-05-06 01:10 -7.37437 -76.44645 35959 ft 476 kts 185°
2026-05-06 01:11 -7.44047 -76.45258 35953 ft 477 kts 185°
2026-05-06 01:11 -7.50642 -76.45869 35969 ft 476 kts 185°
2026-05-06 01:12 -7.57254 -76.46482 35964 ft 476 kts 185°
2026-05-06 01:12 -7.63850 -76.47093 35981 ft 476 kts 185°
2026-05-06 01:13 -7.70460 -76.47706 35988 ft 477 kts 185°
2026-05-06 01:13 -7.77074 -76.48320 35996 ft 477 kts 185°
2026-05-06 01:14 -7.86941 -76.49235 35997 ft 477 kts 185°
2026-05-06 01:14 -7.92479 -76.49750 36005 ft 477 kts 185°
2026-05-06 01:15 -8.00150 -76.50462 36005 ft 477 kts 185°
2026-05-06 01:15 -8.05654 -76.50973 36015 ft 477 kts 185°
2026-05-06 01:16 -8.12269 -76.51588 36022 ft 477 kts 185°
2026-05-06 01:16 -8.18879 -76.52203 36028 ft 477 kts 185°
2026-05-06 01:17 -8.25492 -76.52818 36032 ft 477 kts 185°
2026-05-06 01:17 -8.32110 -76.53433 36043 ft 477 kts 185°
2026-05-06 01:18 -8.37604 -76.53944 36052 ft 477 kts 185°
2026-05-06 01:18 -8.45340 -76.54665 36065 ft 477 kts 185°
2026-05-06 01:19 -8.51891 -76.55344 36077 ft 477 kts 186°
2026-05-06 01:19 -8.58501 -76.56066 36099 ft 477 kts 186°
2026-05-06 01:20 -8.65110 -76.56784 36115 ft 477 kts 186°
2026-05-06 01:20 -8.71714 -76.57502 36124 ft 477 kts 186°
2026-05-06 01:21 -8.78318 -76.58220 36139 ft 477 kts 186°
2026-05-06 01:21 -8.84942 -76.58940 36148 ft 478 kts 186°
2026-05-06 01:22 -8.91554 -76.59660 36156 ft 478 kts 186°
2026-05-06 01:22 -8.98123 -76.60374 36164 ft 478 kts 186°
2026-05-06 01:23 -9.04738 -76.61095 36183 ft 477 kts 186°
2026-05-06 01:23 -9.11341 -76.61814 36192 ft 477 kts 186°
2026-05-06 01:24 -9.17956 -76.62534 36201 ft 477 kts 186°
2026-05-06 01:24 -9.24565 -76.63254 36211 ft 478 kts 186°
2026-05-06 01:25 -9.31142 -76.63971 36219 ft 478 kts 187°
2026-05-06 01:25 -9.37748 -76.64693 36228 ft 478 kts 187°
2026-05-06 01:26 -9.44363 -76.65418 36236 ft 478 kts 187°
2026-05-06 01:26 -9.50983 -76.66142 36238 ft 478 kts 187°
2026-05-06 01:27 -9.57603 -76.66867 36249 ft 478 kts 187°
2026-05-06 01:27 -9.64223 -76.67593 36259 ft 478 kts 187°
2026-05-06 01:28 -9.70841 -76.68319 36260 ft 478 kts 187°
2026-05-06 01:28 -9.77458 -76.69044 36247 ft 478 kts 187°
2026-05-06 01:29 -9.84087 -76.69771 36251 ft 478 kts 187°
2026-05-06 01:29 -9.90667 -76.70493 36244 ft 478 kts 187°
2026-05-06 01:30 -9.97287 -76.71220 36255 ft 478 kts 187°
2026-05-06 01:30 -10.01448 -76.71677 36259 ft 478 kts 187°
2026-05-06 01:31 -10.07848 -76.72272 36249 ft 477 kts 186°
2026-05-06 01:32 -10.13985 -76.72991 36226 ft 477 kts 188°
2026-05-06 01:32 -10.20554 -76.73770 36260 ft 478 kts 187°
2026-05-06 01:33 -10.27182 -76.74506 36260 ft 478 kts 187°
2026-05-06 01:33 -10.33797 -76.75234 36255 ft 478 kts 187°
2026-05-06 01:34 -10.40422 -76.75963 36260 ft 479 kts 187°
2026-05-06 01:34 -10.47043 -76.76693 36258 ft 479 kts 187°
2026-05-06 01:35 -10.53670 -76.77423 36255 ft 479 kts 187°
2026-05-06 01:35 -10.60301 -76.78154 36247 ft 479 kts 187°
2026-05-06 01:36 -10.66898 -76.78881 36239 ft 479 kts 187°
2026-05-06 01:36 -10.73529 -76.79613 36235 ft 479 kts 187°
2026-05-06 01:37 -10.80156 -76.80400 36217 ft 478 kts 193°
2026-05-06 01:37 -10.86632 -76.81934 36222 ft 478 kts 194°
2026-05-06 01:38 -10.93105 -76.83504 36208 ft 478 kts 195°
2026-05-06 01:38 -10.99569 -76.85075 36184 ft 478 kts 195°
2026-05-06 01:39 -11.06040 -76.86648 36159 ft 478 kts 195°
2026-05-06 01:39 -11.12472 -76.88214 36141 ft 478 kts 195°
2026-05-06 01:40 -11.18945 -76.89789 36134 ft 479 kts 195°
2026-05-06 01:40 -11.25419 -76.91366 36099 ft 478 kts 195°
2026-05-06 01:41 -11.31896 -76.92944 36069 ft 478 kts 195°
2026-05-06 01:41 -11.38354 -76.94518 36070 ft 478 kts 195°
2026-05-06 01:42 -11.44815 -76.96094 36055 ft 477 kts 195°
2026-05-06 01:42 -11.51286 -76.97674 36035 ft 477 kts 195°
2026-05-06 01:43 -11.57737 -76.99248 36028 ft 477 kts 195°
2026-05-06 01:43 -11.64155 -77.00815 36013 ft 477 kts 195°
2026-05-06 01:44 -11.70612 -77.02393 36000 ft 477 kts 195°
2026-05-06 01:44 -11.76693 -77.03880 35994 ft 477 kts 195°
2026-05-06 01:45 -11.83148 -77.05459 35979 ft 477 kts 195°
2026-05-06 01:45 -11.89600 -77.07037 35972 ft 477 kts 195°
2026-05-06 01:46 -11.96063 -77.08619 35970 ft 477 kts 195°
2026-05-06 01:46 -12.02555 -77.10043 35952 ft 478 kts 184°
2026-05-06 01:47 -12.05877 -77.09839 35968 ft 480 kts 169°
2026-05-06 01:47 -12.09143 -77.09081 35964 ft 482 kts 168°
2026-05-06 01:47 -12.15681 -77.07461 35965 ft 483 kts 167°
2026-05-06 01:48 -12.22155 -77.05776 35968 ft 484 kts 166°
2026-05-06 01:48 -12.28690 -77.04058 35977 ft 484 kts 166°
2026-05-06 01:49 -12.34102 -77.02634 35978 ft 484 kts 166°
2026-05-06 01:49 -12.41738 -77.00624 35982 ft 484 kts 167°
2026-05-06 01:50 -12.48264 -76.98904 35983 ft 485 kts 167°
2026-05-06 01:50 -12.54799 -76.97182 35986 ft 485 kts 167°
2026-05-06 01:51 -12.65543 -76.94372 35992 ft 485 kts 167°
2026-05-06 01:51 -12.76423 -76.91488 35995 ft 486 kts 166°
2026-05-06 01:52 -12.91736 -76.87440 36000 ft 486 kts 167°
2026-05-06 01:52 -13.04840 -76.83947 35998 ft 487 kts 167°
2026-05-06 01:53 -13.17961 -76.80498 35993 ft 487 kts 167°
2026-05-06 01:53 -13.31094 -76.76984 35991 ft 487 kts 167°
2026-05-06 01:54 -13.44161 -76.73575 35987 ft 488 kts 167°
2026-05-06 01:54 -13.57299 -76.70039 35988 ft 488 kts 167°
2026-05-06 01:55 -13.70459 -76.66530 35990 ft 489 kts 166°
2026-05-06 01:55 -13.83651 -76.63030 35989 ft 489 kts 168°
2026-05-06 01:56 -13.96762 -76.59550 35990 ft 489 kts 168°
2026-05-06 01:56 -14.09958 -76.56012 35991 ft 490 kts 166°
2026-05-06 01:57 -14.21087 -76.53077 35993 ft 491 kts 166°
2026-05-06 01:57 -14.33081 -76.49805 36003 ft 491 kts 167°
2026-05-06 01:58 -14.46298 -76.46229 36005 ft 491 kts 166°
2026-05-06 01:58 -14.59535 -76.42592 36009 ft 492 kts 166°
2026-05-06 01:59 -14.72772 -76.39003 36016 ft 492 kts 167°
2026-05-06 01:59 -14.86030 -76.35388 36016 ft 493 kts 167°
2026-05-06 02:00 -14.99222 -76.31786 36017 ft 493 kts 167°
2026-05-06 02:00 -15.12491 -76.28127 36021 ft 494 kts 166°
2026-05-06 02:01 -15.25810 -76.24440 36019 ft 494 kts 167°
2026-05-06 02:01 -15.39136 -76.20826 36022 ft 495 kts 167°
2026-05-06 02:02 -15.50200 -76.17759 36019 ft 495 kts 167°
2026-05-06 02:02 -15.62441 -76.14419 36025 ft 496 kts 167°
2026-05-06 02:03 -15.75788 -76.10748 36028 ft 496 kts 166°
2026-05-06 02:03 -15.86894 -76.07663 36031 ft 496 kts 167°
2026-05-06 02:04 -16.00254 -76.04038 36031 ft 497 kts 166°
2026-05-06 02:04 -16.13606 -76.00325 36018 ft 497 kts 167°
2026-05-06 02:05 -16.26962 -75.96614 36027 ft 497 kts 168°
2026-05-06 02:05 -16.40344 -75.92886 36033 ft 497 kts 168°
2026-05-06 02:06 -16.53715 -75.89197 36032 ft 498 kts 166°
2026-05-06 02:06 -16.69308 -75.84877 36038 ft 498 kts 167°
2026-05-06 02:07 -16.80454 -75.81760 36036 ft 499 kts 167°
2026-05-06 02:07 -16.96105 -75.77383 36036 ft 499 kts 167°
2026-05-06 02:08 -17.06055 -75.74586 36035 ft 499 kts 168°
2026-05-06 02:08 -17.17264 -75.71504 36040 ft 500 kts 167°
2026-05-06 02:09 -17.30722 -75.67720 36039 ft 500 kts 167°
2026-05-06 02:09 -17.38531 -75.65527 36316 ft 501 kts 167°
2026-05-06 02:10 -17.41903 -75.64586 36574 ft 500 kts 167°
2026-05-06 02:10 -17.45261 -75.63645 36832 ft 499 kts 167°
2026-05-06 02:10 -17.48621 -75.62702 37093 ft 498 kts 167°
2026-05-06 02:10 -17.51970 -75.61762 37349 ft 497 kts 168°
2026-05-06 02:11 -17.55310 -75.60824 37605 ft 496 kts 168°
2026-05-06 02:11 -17.58298 -75.59984 37840 ft 495 kts 168°
2026-05-06 02:11 -17.61791 -75.59002 38054 ft 494 kts 168°
2026-05-06 02:11 -17.64920 -75.58122 38038 ft 492 kts 168°
2026-05-06 02:12 -17.73511 -75.55701 38044 ft 491 kts 168°
2026-05-06 02:12 -17.86724 -75.51988 38050 ft 491 kts 168°
2026-05-06 02:13 -17.99951 -75.48240 38055 ft 492 kts 168°
2026-05-06 02:13 -18.13176 -75.44494 38038 ft 492 kts 168°
2026-05-06 02:14 -18.26343 -75.40789 38053 ft 493 kts 168°
2026-05-06 02:14 -18.37877 -75.37528 38044 ft 494 kts 166°
2026-05-06 02:15 -18.44897 -75.35341 38041 ft 494 kts 167°
2026-05-06 02:15 -18.58130 -75.31344 38053 ft 494 kts 168°
2026-05-06 02:16 -18.71356 -75.27403 38053 ft 495 kts 167°
2026-05-06 02:16 -18.84621 -75.23425 38049 ft 495 kts 167°
2026-05-06 02:17 -18.97861 -75.19385 38051 ft 495 kts 168°
2026-05-06 02:17 -19.07791 -75.16384 38051 ft 496 kts 168°
2026-05-06 02:18 -19.20991 -75.12395 38049 ft 496 kts 168°
2026-05-06 02:18 -19.34237 -75.08350 38052 ft 496 kts 168°
2026-05-06 02:19 -19.45806 -75.04805 38052 ft 496 kts 168°
2026-05-06 02:19 -19.57478 -75.01322 38054 ft 496 kts 167°
2026-05-06 02:20 -19.77360 -74.95243 38061 ft 496 kts 169°
2026-05-06 02:21 -19.90642 -74.91209 38059 ft 496 kts 169°
2026-05-06 02:21 -20.03951 -74.87125 38059 ft 497 kts 167°
2026-05-06 02:22 -20.17250 -74.83031 38060 ft 497 kts 168°
2026-05-06 02:22 -20.29751 -74.79191 38057 ft 498 kts 168°
2026-05-06 02:23 -20.36417 -74.77144 38057 ft 498 kts 168°
2026-05-06 02:23 -20.43039 -74.75107 38062 ft 500 kts 168°
2026-05-06 02:23 -20.46384 -74.74076 38232 ft 500 kts 168°
2026-05-06 02:24 -20.49720 -74.73048 38442 ft 499 kts 168°
2026-05-06 02:24 -20.53057 -74.72020 38649 ft 498 kts 168°
2026-05-06 02:24 -20.56393 -74.70991 38831 ft 498 kts 168°
2026-05-06 02:24 -20.59712 -74.69966 38988 ft 497 kts 168°
2026-05-06 02:25 -20.63044 -74.68938 39058 ft 497 kts 168°
2026-05-06 02:25 -20.69668 -74.66892 39056 ft 496 kts 168°
2026-05-06 02:26 -20.76303 -74.64841 39056 ft 496 kts 168°
2026-05-06 02:26 -20.82928 -74.62791 39059 ft 496 kts 168°
2026-05-06 02:27 -20.89518 -74.60750 39060 ft 496 kts 168°
2026-05-06 02:27 -20.96155 -74.58692 39059 ft 496 kts 168°
2026-05-06 02:28 -21.02792 -74.56633 39056 ft 496 kts 168°
2026-05-06 02:28 -21.09440 -74.54569 39057 ft 497 kts 168°
2026-05-06 02:29 -21.16090 -74.52501 39060 ft 497 kts 168°
2026-05-06 02:29 -21.22690 -74.50445 39053 ft 497 kts 168°
2026-05-06 02:30 -21.29342 -74.48372 39049 ft 497 kts 169°
2026-05-06 02:30 -21.35980 -74.46301 39056 ft 497 kts 169°
2026-05-06 02:31 -21.42625 -74.44227 39065 ft 497 kts 169°
2026-05-06 02:31 -21.49278 -74.42148 39053 ft 498 kts 169°
2026-05-06 02:32 -21.55940 -74.40064 39058 ft 498 kts 169°
2026-05-06 02:32 -21.62541 -74.37997 39061 ft 498 kts 169°
2026-05-06 02:33 -21.69192 -74.35912 39057 ft 498 kts 169°
2026-05-06 02:33 -21.71452 -74.35203 39059 ft 498 kts 169°
2026-05-06 02:34 -21.82517 -74.31730 39057 ft 498 kts 169°
2026-05-06 02:34 -21.89181 -74.29636 39060 ft 499 kts 169°
2026-05-06 02:35 -21.95845 -74.27539 39062 ft 499 kts 169°
2026-05-06 02:35 -22.02474 -74.25451 39059 ft 499 kts 169°
2026-05-06 02:36 -22.09146 -74.23347 39058 ft 500 kts 169°
2026-05-06 02:36 -22.15833 -74.21238 39059 ft 500 kts 169°
2026-05-06 02:37 -22.22514 -74.19127 39060 ft 500 kts 169°
2026-05-06 02:37 -22.29190 -74.17017 39059 ft 500 kts 169°
2026-05-06 02:38 -22.35840 -74.14912 39060 ft 500 kts 169°
2026-05-06 02:38 -22.42528 -74.12794 39062 ft 501 kts 169°
2026-05-06 02:39 -22.49217 -74.10672 39061 ft 501 kts 169°
2026-05-06 02:39 -22.55912 -74.08546 39061 ft 501 kts 169°
2026-05-06 02:40 -22.62601 -74.06421 39061 ft 501 kts 169°
2026-05-06 02:40 -22.69255 -74.04304 39061 ft 501 kts 169°
2026-05-06 02:41 -22.75957 -74.02170 39065 ft 501 kts 169°
2026-05-06 02:41 -22.82654 -74.00036 39063 ft 501 kts 169°
2026-05-06 02:42 -22.89348 -73.97900 39059 ft 502 kts 170°
2026-05-06 02:42 -22.96054 -73.95758 39063 ft 502 kts 170°
2026-05-06 02:43 -23.02748 -73.93618 39070 ft 502 kts 170°
2026-05-06 02:43 -23.09418 -73.91483 39060 ft 502 kts 170°
2026-05-06 02:44 -23.16128 -73.89333 39056 ft 503 kts 170°
2026-05-06 02:44 -23.22831 -73.87183 39061 ft 503 kts 170°
2026-05-06 02:45 -23.29561 -73.85022 39061 ft 503 kts 170°
2026-05-06 02:45 -23.36273 -73.82865 39062 ft 504 kts 170°
2026-05-06 02:46 -23.43002 -73.80700 39058 ft 504 kts 170°
2026-05-06 02:46 -23.49733 -73.78532 39057 ft 504 kts 170°
2026-05-06 02:47 -23.56466 -73.76361 39058 ft 504 kts 170°
2026-05-06 02:47 -23.63202 -73.74187 39058 ft 504 kts 170°
2026-05-06 02:48 -23.69924 -73.72015 39062 ft 504 kts 170°
2026-05-06 02:48 -23.76660 -73.69837 39061 ft 504 kts 170°
2026-05-06 02:49 -23.83396 -73.67655 39056 ft 505 kts 170°
2026-05-06 02:49 -23.90128 -73.65474 39051 ft 505 kts 171°
2026-05-06 02:50 -23.95726 -73.63657 39058 ft 505 kts 170°
2026-05-06 02:50 -24.02467 -73.61469 39053 ft 505 kts 171°
2026-05-06 02:51 -24.10299 -73.58928 39048 ft 505 kts 171°
2026-05-06 02:51 -24.15891 -73.57112 39050 ft 505 kts 171°
2026-05-06 02:52 -24.23774 -73.54549 39051 ft 505 kts 171°
2026-05-06 02:52 -24.29373 -73.52726 39052 ft 505 kts 171°
2026-05-06 02:53 -24.36116 -73.50529 39050 ft 506 kts 171°
2026-05-06 02:53 -24.42873 -73.48325 39051 ft 506 kts 171°
2026-05-06 02:54 -24.49615 -73.46124 39056 ft 506 kts 171°
2026-05-06 02:54 -24.56373 -73.43914 39053 ft 506 kts 171°
2026-05-06 02:55 -24.63124 -73.41705 39059 ft 507 kts 171°
2026-05-06 02:55 -24.69888 -73.39489 39059 ft 507 kts 171°
2026-05-06 02:56 -24.76659 -73.37267 39057 ft 508 kts 171°
2026-05-06 02:56 -24.83380 -73.35060 39058 ft 508 kts 171°
2026-05-06 02:57 -24.90169 -73.32828 39058 ft 508 kts 171°
2026-05-06 02:57 -24.96961 -73.30593 39058 ft 509 kts 171°
2026-05-06 02:58 -25.03741 -73.28358 39060 ft 509 kts 171°
2026-05-06 02:58 -25.10538 -73.26116 39060 ft 509 kts 171°
2026-05-06 02:59 -25.17330 -73.23873 39065 ft 510 kts 171°
2026-05-06 02:59 -25.24091 -73.21637 39061 ft 510 kts 171°
2026-05-06 03:00 -25.30892 -73.19385 39064 ft 511 kts 171°
2026-05-06 03:00 -25.37712 -73.17125 39066 ft 511 kts 171°
2026-05-06 03:01 -25.44528 -73.14863 39068 ft 512 kts 171°
2026-05-06 03:01 -25.51373 -73.12589 39063 ft 512 kts 171°
2026-05-06 03:02 -25.58194 -73.10320 39071 ft 513 kts 171°
2026-05-06 03:02 -25.64979 -73.08060 39064 ft 513 kts 172°
2026-05-06 03:03 -25.71826 -73.05777 39065 ft 514 kts 172°
2026-05-06 03:03 -25.78664 -73.03494 39075 ft 513 kts 172°
2026-05-06 03:04 -25.85513 -73.01205 39077 ft 514 kts 172°
2026-05-06 03:04 -25.92360 -72.98914 39077 ft 514 kts 172°
2026-05-06 03:05 -25.99213 -72.96618 39070 ft 514 kts 172°
2026-05-06 03:05 -26.06074 -72.94316 39071 ft 515 kts 172°
2026-05-06 03:06 -26.12901 -72.92023 39070 ft 515 kts 172°
2026-05-06 03:06 -26.19789 -72.89706 39073 ft 515 kts 172°
2026-05-06 03:07 -26.26615 -72.87409 39074 ft 515 kts 172°
2026-05-06 03:07 -26.33481 -72.85094 39073 ft 516 kts 172°
2026-05-06 03:08 -26.40350 -72.82775 39074 ft 516 kts 172°
2026-05-06 03:08 -26.47238 -72.80447 39079 ft 516 kts 173°
2026-05-06 03:09 -26.54115 -72.78120 39073 ft 517 kts 173°
2026-05-06 03:09 -26.61005 -72.75786 39074 ft 517 kts 173°
2026-05-06 03:10 -26.67910 -72.73444 39073 ft 518 kts 173°
2026-05-06 03:10 -26.73594 -72.71514 39073 ft 518 kts 173°
2026-05-06 03:11 -26.80013 -72.69331 39075 ft 518 kts 173°
2026-05-06 03:12 -26.86917 -72.66981 39076 ft 518 kts 173°
2026-05-06 03:12 -26.93834 -72.64623 39075 ft 518 kts 173°
2026-05-06 03:13 -27.00738 -72.62267 39073 ft 519 kts 173°
2026-05-06 03:13 -27.07608 -72.59919 39076 ft 519 kts 173°
2026-05-06 03:14 -27.14511 -72.57557 39073 ft 519 kts 173°
2026-05-06 03:14 -27.21421 -72.55190 39075 ft 519 kts 173°
2026-05-06 03:15 -27.28341 -72.52817 39075 ft 519 kts 173°
2026-05-06 03:15 -27.35248 -72.50445 39075 ft 519 kts 173°
2026-05-06 03:16 -27.42129 -72.48079 39073 ft 519 kts 173°
2026-05-06 03:16 -27.49087 -72.45683 39076 ft 520 kts 173°
2026-05-06 03:17 -27.55958 -72.43318 39073 ft 520 kts 173°
2026-05-06 03:17 -27.62885 -72.40935 39080 ft 520 kts 173°
2026-05-06 03:18 -27.69813 -72.38549 39080 ft 521 kts 173°
2026-05-06 03:18 -27.76756 -72.36154 39077 ft 521 kts 173°
2026-05-06 03:19 -27.83687 -72.33760 39079 ft 521 kts 174°
2026-05-06 03:19 -27.90637 -72.31357 39080 ft 522 kts 173°
2026-05-06 03:20 -28.01061 -72.27746 39081 ft 522 kts 174°
2026-05-06 03:20 -28.08013 -72.25334 39072 ft 523 kts 174°
2026-05-06 03:21 -28.14971 -72.22916 39077 ft 523 kts 174°
2026-05-06 03:21 -28.21942 -72.20491 39079 ft 524 kts 174°
2026-05-06 03:22 -28.28919 -72.18060 39082 ft 524 kts 174°
2026-05-06 03:22 -28.35860 -72.15638 39080 ft 525 kts 174°
2026-05-06 03:23 -28.42846 -72.13198 39078 ft 525 kts 174°
2026-05-06 03:23 -28.49847 -72.10746 39081 ft 526 kts 174°
2026-05-06 03:24 -28.56847 -72.08281 39077 ft 526 kts 174°
2026-05-06 03:24 -28.63866 -72.05807 39084 ft 527 kts 174°
2026-05-06 03:25 -28.70821 -72.03352 39079 ft 527 kts 174°
2026-05-06 03:25 -28.77828 -72.00875 39080 ft 527 kts 174°
2026-05-06 03:26 -28.84842 -71.98392 39085 ft 528 kts 174°
2026-05-06 03:26 -28.91858 -71.95906 39084 ft 528 kts 174°
2026-05-06 03:27 -28.98873 -71.93415 39086 ft 528 kts 174°
2026-05-06 03:27 -29.05898 -71.90918 39086 ft 528 kts 174°
2026-05-06 03:28 -29.12920 -71.88419 39083 ft 529 kts 174°
2026-05-06 03:28 -29.19904 -71.85929 39085 ft 529 kts 174°
2026-05-06 03:29 -29.26940 -71.83417 39083 ft 529 kts 174°
2026-05-06 03:29 -29.33962 -71.80906 39082 ft 529 kts 174°
2026-05-06 03:30 -29.40996 -71.78388 39086 ft 529 kts 174°
2026-05-06 03:30 -29.48027 -71.75874 39086 ft 529 kts 175°
2026-05-06 03:31 -29.55073 -71.73372 39090 ft 529 kts 175°
2026-05-06 03:31 -29.62111 -71.70866 39089 ft 529 kts 175°
2026-05-06 03:32 -29.69101 -71.68374 39087 ft 529 kts 175°
2026-05-06 03:32 -29.76140 -71.65861 39086 ft 529 kts 175°
2026-05-06 03:33 -29.83158 -71.63352 39088 ft 529 kts 175°
2026-05-06 03:33 -29.90188 -71.60835 39085 ft 528 kts 175°
2026-05-06 03:34 -29.97211 -71.58316 39087 ft 528 kts 174°
2026-05-06 03:34 -30.04231 -71.55795 39084 ft 528 kts 175°
2026-05-06 03:35 -30.11235 -71.53276 39085 ft 528 kts 175°
2026-05-06 03:35 -30.18259 -71.50745 39086 ft 528 kts 175°
2026-05-06 03:36 -30.25276 -71.48215 39090 ft 528 kts 174°
2026-05-06 03:36 -30.28741 -71.46728 39075 ft 541 kts 164°
2026-05-06 03:36 -30.32071 -71.44797 39090 ft 544 kts 163°
2026-05-06 03:37 -30.38859 -71.40901 39095 ft 543 kts 163°
2026-05-06 03:37 -30.44526 -71.37632 39092 ft 542 kts 164°
2026-05-06 03:38 -30.52375 -71.33096 39085 ft 541 kts 164°
2026-05-06 03:38 -30.57970 -71.29859 39096 ft 541 kts 164°
2026-05-06 03:39 -30.65835 -71.25301 39098 ft 540 kts 164°
2026-05-06 03:39 -30.72564 -71.21395 39093 ft 540 kts 164°
2026-05-06 03:40 -30.79288 -71.17485 39080 ft 540 kts 164°
2026-05-06 03:40 -30.86004 -71.13574 39082 ft 539 kts 164°
2026-05-06 03:41 -30.91584 -71.10320 39084 ft 540 kts 164°
2026-05-06 03:41 -30.98296 -71.06399 39092 ft 541 kts 164°
2026-05-06 03:42 -31.05031 -71.02459 39073 ft 541 kts 164°
2026-05-06 03:42 -31.11756 -70.98519 39056 ft 542 kts 164°
2026-05-06 03:43 -31.15133 -70.96538 38599 ft 542 kts 164°
2026-05-06 03:43 -31.19640 -70.93894 37185 ft 552 kts 162°
2026-05-06 03:43 -31.21955 -70.92531 36829 ft 549 kts 162°
2026-05-06 03:43 -31.25332 -70.90543 36596 ft 537 kts 162°
2026-05-06 03:44 -31.28645 -70.88594 36337 ft 528 kts 162°
2026-05-06 03:44 -31.31917 -70.86839 35640 ft 519 kts 171°
2026-05-06 03:44 -31.35382 -70.85959 34659 ft 500 kts 188°
2026-05-06 03:44 -31.38828 -70.85852 34108 ft 492 kts 189°
2026-05-06 03:45 -31.42197 -70.85755 33959 ft 479 kts 190°
2026-05-06 03:45 -31.45500 -70.85686 33517 ft 472 kts 191°
2026-05-06 03:45 -31.48781 -70.85640 32865 ft 472 kts 191°
2026-05-06 03:45 -31.52060 -70.85597 32275 ft 470 kts 191°
2026-05-06 03:46 -31.55330 -70.85556 31781 ft 466 kts 191°
2026-05-06 03:46 -31.58554 -70.85515 31297 ft 462 kts 191°
2026-05-06 03:46 -31.61749 -70.85475 30798 ft 460 kts 191°
2026-05-06 03:46 -31.64953 -70.85434 30270 ft 458 kts 191°
2026-05-06 03:47 -31.68099 -70.85395 29670 ft 456 kts 191°
2026-05-06 03:47 -31.71258 -70.85354 29128 ft 452 kts 190°
2026-05-06 03:47 -31.74380 -70.85312 28662 ft 447 kts 190°
2026-05-06 03:47 -31.77491 -70.85202 28082 ft 446 kts 189°
2026-05-06 03:48 -31.80583 -70.85086 27617 ft 441 kts 189°
2026-05-06 03:48 -31.83637 -70.84977 27160 ft 437 kts 189°
2026-05-06 03:48 -31.86669 -70.84872 26654 ft 434 kts 189°
2026-05-06 03:48 -31.89672 -70.84767 26171 ft 431 kts 189°
2026-05-06 03:49 -31.92669 -70.84663 25645 ft 429 kts 189°
2026-05-06 03:49 -31.95667 -70.84558 24976 ft 432 kts 188°
2026-05-06 03:49 -31.98683 -70.84452 24306 ft 435 kts 188°
2026-05-06 03:49 -32.01719 -70.84346 23638 ft 439 kts 187°
2026-05-06 03:50 -32.04780 -70.84238 22835 ft 441 kts 187°
2026-05-06 03:50 -32.07852 -70.84130 22123 ft 440 kts 186°
2026-05-06 03:50 -32.10911 -70.84023 21458 ft 439 kts 186°
2026-05-06 03:50 -32.13963 -70.83916 20746 ft 439 kts 186°
2026-05-06 03:51 -32.17012 -70.83810 20042 ft 439 kts 185°
2026-05-06 03:51 -32.20074 -70.83701 19342 ft 439 kts 185°
2026-05-06 03:51 -32.23131 -70.83593 18625 ft 441 kts 184°
2026-05-06 03:51 -32.26171 -70.83485 17892 ft 442 kts 184°
2026-05-06 03:52 -32.29269 -70.83374 17316 ft 437 kts 183°
2026-05-06 03:52 -32.32258 -70.83267 16793 ft 432 kts 183°
2026-05-06 03:52 -32.35237 -70.83161 16254 ft 427 kts 183°
2026-05-06 03:52 -32.38195 -70.83053 15721 ft 423 kts 183°
2026-05-06 03:53 -32.41127 -70.82949 15187 ft 420 kts 182°
2026-05-06 03:53 -32.44051 -70.82843 14641 ft 417 kts 182°
2026-05-06 03:53 -32.46940 -70.82739 14147 ft 414 kts 182°
2026-05-06 03:53 -32.49806 -70.82636 13551 ft 411 kts 182°
2026-05-06 03:54 -32.52657 -70.82533 12990 ft 406 kts 182°
2026-05-06 03:54 -32.55463 -70.82431 12502 ft 401 kts 181°
2026-05-06 03:54 -32.58243 -70.82331 12056 ft 397 kts 181°
2026-05-06 03:54 -32.61003 -70.82231 11467 ft 396 kts 181°
2026-05-06 03:55 -32.63719 -70.82133 11036 ft 392 kts 181°
2026-05-06 03:55 -32.66395 -70.82036 10885 ft 376 kts 181°
2026-05-06 03:55 -32.68968 -70.81944 10736 ft 363 kts 181°
2026-05-06 03:55 -32.71453 -70.81854 10522 ft 352 kts 181°
2026-05-06 03:56 -32.73868 -70.81766 10317 ft 342 kts 181°
2026-05-06 03:56 -32.76223 -70.81680 10056 ft 335 kts 181°
2026-05-06 03:56 -32.78542 -70.81596 9709 ft 332 kts 180°
2026-05-06 03:56 -32.80822 -70.81514 9431 ft 327 kts 180°
2026-05-06 03:57 -32.83079 -70.81431 9173 ft 322 kts 180°
2026-05-06 03:57 -32.85299 -70.81349 8892 ft 317 kts 180°
2026-05-06 03:57 -32.87484 -70.81271 8642 ft 310 kts 180°
2026-05-06 03:57 -32.89623 -70.81194 8416 ft 302 kts 180°
2026-05-06 03:58 -32.91704 -70.81124 8184 ft 296 kts 182°
2026-05-06 03:58 -32.93697 -70.81349 7942 ft 289 kts 191°
2026-05-06 03:58 -32.95677 -70.81671 7706 ft 284 kts 190°
2026-05-06 03:58 -32.97618 -70.81963 7488 ft 279 kts 189°
2026-05-06 03:59 -32.99532 -70.82239 7272 ft 276 kts 189°
2026-05-06 03:59 -33.01430 -70.82368 7029 ft 272 kts 179°
2026-05-06 03:59 -33.03304 -70.82281 6828 ft 267 kts 179°
2026-05-06 03:59 -33.05144 -70.82191 6620 ft 262 kts 178°
2026-05-06 04:00 -33.06952 -70.82063 6353 ft 259 kts 178°
2026-05-06 04:00 -33.08744 -70.81947 6058 ft 257 kts 178°
2026-05-06 04:00 -33.10525 -70.81837 5757 ft 254 kts 178°
2026-05-06 04:00 -33.12280 -70.81732 5479 ft 251 kts 178°
2026-05-06 04:01 -33.14020 -70.81631 5198 ft 249 kts 178°
2026-05-06 04:01 -33.15733 -70.81515 5036 ft 241 kts 177°
2026-05-06 04:01 -33.17379 -70.81411 5020 ft 237 kts 178°
2026-05-06 04:01 -33.19032 -70.81323 5014 ft 238 kts 178°
2026-05-06 04:02 -33.20695 -70.81234 4776 ft 238 kts 178°
2026-05-06 04:02 -33.22347 -70.81148 4469 ft 237 kts 178°
2026-05-06 04:02 -33.23989 -70.81062 4164 ft 235 kts 178°
2026-05-06 04:02 -33.25608 -70.80978 3852 ft 229 kts 177°
2026-05-06 04:03 -33.27163 -70.80896 3570 ft 214 kts 177°
2026-05-06 04:03 -33.27897 -70.80856 3442 ft 204 kts 177°
2026-05-06 04:03 -33.28218 -70.80839 3377 ft 199 kts 177°
2026-05-06 04:03 -33.28536 -70.80822 3310 ft 196 kts 177°
2026-05-06 04:04 -33.29494 -70.80774 3142 ft 180 kts 177°
2026-05-06 04:04 -33.30621 -70.80714 2905 ft 161 kts 176°
2026-05-06 04:04 -33.30660 -70.80712 2895 ft 161 kts 176°
2026-05-06 04:04 -33.31750 -70.80654 2660 ft 154 kts 176°
2026-05-06 04:05 -33.32815 -70.80599 2440 ft 151 kts 176°
2026-05-06 04:05 -33.33861 -70.80544 2236 ft 149 kts 176°
2026-05-06 04:05 -33.34893 -70.80490 2041 ft 148 kts 176°
2026-05-06 04:05 -33.35909 -70.80447 1840 ft 147 kts 176°
2026-05-06 04:06 -33.36930 -70.80386 1684 ft 141 kts 174°
2026-05-06 04:06 -33.37869 -70.80339 1577 ft 125 kts 177°
2026-05-06 04:06 -33.38619 -70.80294 1576 ft 89 kts 178°
2026-05-06 04:06 -33.39106 -70.80267 1576 ft 60 kts 177°
2026-05-06 04:07 -33.39508 -70.80249 1574 ft 56 kts 177°
2026-05-06 04:07 -33.39795 -70.80233 1575 ft 31 kts 177°
2026-05-06 04:07 -33.39986 -70.80145 1573 ft 28 kts 148°
2026-05-06 04:07 -33.40079 -70.80066 1571 ft 15 kts 143°
2026-05-06 04:08 -33.40148 -70.80008 1569 ft 10 kts 139°
2026-05-06 04:08 -33.40164 -70.79958 1568 ft 3 kts 91°
2026-05-06 04:08 -33.40164 -70.79918 1568 ft 6 kts 89°
2026-05-06 04:08 -33.40162 -70.79853 1567 ft 9 kts 88°
2026-05-06 04:09 -33.40159 -70.79765 1567 ft 11 kts 87°
2026-05-06 04:09 -33.40155 -70.79677 1567 ft 9 kts 87°
2026-05-06 04:09 -33.40143 -70.79627 1567 ft 1 kts 47°
2026-05-06 04:09 -33.40132 -70.79615 1567 ft 0 kts 36°
2026-05-06 04:10 -33.40125 -70.79612 1567 ft 2 kts 18°
2026-05-06 04:10 -33.40105 -70.79608 1567 ft 3 kts 358°
2026-05-06 04:10 -33.40080 -70.79610 1567 ft 2 kts 355°
2026-05-06 04:11 -33.40066 -70.79611 1567 ft 0 kts 357°